Location: Legnica
(51.2167°N, 16.1667°E)
Time: 20:41:31
(UTC+01:00)

ISS - Visible Passes

Search period start: 18 January 2018 00:00
Search period end: 28 January 2018 00:00
Orbit: 402 x 407 km, 51.6° (Epoch: 18 January)

Date Brightness Start Highest point End Pass type
(mag) Time Alt. Az. Time Alt. Az. Time Alt. Az.
26 Jan -1.5 18:55:14 10° SSW 18:56:18 17° S 18:56:18 17° S visible
27 Jan -1.9 18:03:41 10° S 18:05:47 16° SE 18:06:18 16° SE visible
27 Jan -0.7 19:38:33 10° WSW 19:38:58 13° WSW 19:38:58 13° WSW visible
